Regional Weather Roundup
Issued by NWS

Home | Current Version | Previous Version | Text Only | Print | Product List | Glossary Off
Versions: 1 2 3 4 5 6 7 8 9 10 11 12 13 14 15 16 17 18 19 20 21 22 23 24 25 26 27 28 29 30 31 32 33 34 35 36 37 38 39 40 41 42 43 44 45 46 47 48 49 50

000
ASUS43 KMKX 241210
RWRWI

WISCONSIN REGIONAL WEATHER ROUNDUP
NATIONAL WEATHER SERVICE MILWAUKEE/SULLIVAN WI
700 AM CDT THU JUL 24 2014

NOTE: "FAIR" INDICATES FEW OR NO CLOUDS BELOW 12,000 FEET WITH NO
SIGNIFICANT WEATHER AND/OR OBSTRUCTIONS TO VISIBILITY.

WIZ001-002-006>008-014>016-023>028-241300-
NORTHWEST WISCONSIN

CITY           SKY/WX    TMP DP  RH WIND       PRES   REMARKS
SUPERIOR ARPT  PTSUNNY   55  54  97 CALM      30.18S FOG
6HR MIN TEMP:  49; 6HR MAX TEMP:  55;

ASHLAND        SUNNY     54  53  97 CALM      30.19S
6HR MIN TEMP:  48; 6HR MAX TEMP:  54;

HAYWARD        CLOUDY    58  54  86 NE3       30.19S
6HR MIN TEMP:  50; 6HR MAX TEMP:  58;

SIREN          SUNNY     58  55  88 CALM      30.17F
6HR MIN TEMP:  57; 6HR MAX TEMP:  62;

RICE LAKE      PTSUNNY   56  53  90 CALM      30.20S
6HR MIN TEMP:  55; 6HR MAX TEMP:  57;

LADYSMITH      CLOUDY    57  54  88 CALM      30.21F
6HR MIN TEMP:  51; 6HR MAX TEMP:  57;

EAU CLAIRE     MOSUNNY   58  56  93 NE3       30.17F
6HR MIN TEMP:  54; 6HR MAX TEMP:  61;

MENOMONIE      PTSUNNY   58  56  93 CALM      30.18F
6HR MIN TEMP:  56; 6HR MAX TEMP:  63;

NEW RICHMOND   SUNNY     61  56  85 SE3       30.17F
6HR MIN TEMP:  57; 6HR MAX TEMP:  61;

OSCEOLA        SUNNY     59  58  97 E3        30.19F
6HR MIN TEMP:  53; 6HR MAX TEMP:  60;

$$

WIZ003>005-009-010-017-018-241300-
NORTH CENTRAL WISCONSIN

CITY           SKY/WX    TMP DP  RH WIND       PRES   REMARKS
WOODRUFF       PTSUNNY   52  46  80 CALM      30.21F
6HR MIN TEMP:  46; 6HR MAX TEMP:  52;

RHINELANDER    MOSUNNY   55  52  89 SW5       30.23R
6HR MIN TEMP:  42; 6HR MAX TEMP:  55;

EAGLE RIVER    MOSUNNY   48  48 100 CALM      30.22S
6HR MIN TEMP:  42; 6HR MAX TEMP:  48;

LAND O LAKES   SUNNY     46  46 100 CALM      30.23S
6HR MIN TEMP:  39; 6HR MAX TEMP:  46;

PHILLIPS       CLOUDY    55  53  94 S3        30.20F
6HR MIN TEMP:  47; 6HR MAX TEMP:  55;

TOMAHAWK       CLOUDY    50  49  97 CALM      30.23S
6HR MIN TEMP:  40; 6HR MAX TEMP:  50;

MEDFORD        PTSUNNY   55  52  91 CALM      30.20F
6HR MIN TEMP:  50; 6HR MAX TEMP:  55;

MERRILL        SUNNY     50  50  98 CALM      30.22S
6HR MIN TEMP:  44; 6HR MAX TEMP:  52;

$$

WIZ029-030-035-036-043>047-241300-
CENTRAL WISCONSIN

CITY           SKY/WX    TMP DP  RH WIND       PRES   REMARKS
WAUSAU         SUNNY     55  52  89 CALM      30.20S
6HR MIN TEMP:  52; 6HR MAX TEMP:  58;

MOSINEE        SUNNY     54  54 100 CALM      30.22S
MARSHFIELD     SUNNY     57  54  89 S3        30.20S
6HR MIN TEMP:  54; 6HR MAX TEMP:  61;

STEVENS POINT  MOSUNNY   52  50  90 CALM      30.21S
6HR MIN TEMP:  47; 6HR MAX TEMP:  56;

WAUPACA        PTSUNNY   56  55  94 CALM      30.21S
6HR MIN TEMP:  54; 6HR MAX TEMP:  59;

WAUTOMA        MOSUNNY   55  51  86 CALM      30.21S
6HR MIN TEMP:  49; 6HR MAX TEMP:  55;

WISC RAPIDS    SUNNY     55  51  86 CALM      30.21F
6HR MIN TEMP:  51; 6HR MAX TEMP:  61;

CAMP DOUGLAS   MOSUNNY   55  55 100 CALM      30.20S
$$

WIZ011>013-019>022-031-037>040-048>050-241300-
NORTHEAST WISCONSIN

CITY           SKY/WX    TMP DP  RH WIND       PRES   REMARKS
ANTIGO         SUNNY     51  49  95 CALM      30.22S
6HR MIN TEMP:  46; 6HR MAX TEMP:  55;

STURGEON BAY   SUNNY     54  48  82 CALM      30.20S
6HR MIN TEMP:  46; 6HR MAX TEMP:  54;

GREEN BAY      SUNNY     56  52  86 CALM      30.20S
6HR MIN TEMP:  51; 6HR MAX TEMP:  56;

MANITOWOC      SUNNY     56  51  84 NW3       30.20S
6HR MIN TEMP:  50; 6HR MAX TEMP:  56;

APPLETON       MOSUNNY   55  48  76 W6        30.21S
CLINTONVILLE   SUNNY     54  52  94 CALM      30.21S
OSHKOSH        SUNNY     59  53  80 CALM      30.20S
6HR MIN TEMP:  54; 6HR MAX TEMP:  59;

$$

WIZ032>034-041-042-053>061-241300-
SOUTHWEST WISCONSIN

CITY           SKY/WX    TMP DP  RH WIND       PRES   REMARKS
LA CROSSE      SUNNY     62  56  80 E5        30.18S
6HR MIN TEMP:  60; 6HR MAX TEMP:  66;

SPARTA         SUNNY     52  50  93 CALM      30.19F
6HR MIN TEMP:  46; 6HR MAX TEMP:  54;

VIROQUA        FAIR      58  56  94 CALM      30.20S
6HR MIN TEMP:  55; 6HR MAX TEMP:  61;

BOSCOBEL       SUNNY     56  54  93 CALM      30.20S
6HR MIN TEMP:  51; 6HR MAX TEMP:  62;

PRAIRIE DU CHI SUNNY     59  54  84 E5        30.18S
6HR MIN TEMP:  58; 6HR MAX TEMP:  62;

PLATTEVILLE    FAIR      58  54  86 CALM      30.20S
6HR MIN TEMP:  54; 6HR MAX TEMP:  61;

$$

WIZ056-057-062-063-064-067-068-241300-
SOUTH CENTRAL WISCONSIN

CITY           SKY/WX    TMP DP  RH WIND       PRES   REMARKS
BARABOO/DELLS  MOSUNNY   54  50  86 CALM      30.21R
6HR MIN TEMP:  51; 6HR MAX TEMP:  59;

LONE ROCK      MOSUNNY   61  55  81 CALM      30.20S
6HR MIN TEMP:  58; 6HR MAX TEMP:  66;

WATERTOWN      SUNNY     54  52  92 CALM      30.20S
6HR MIN TEMP:  49; 6HR MAX TEMP:  54;

MADISON        MOSUNNY   58  52  80 CALM      30.20R
6HR MIN TEMP:  52; 6HR MAX TEMP:  59;

MIDDLETON      FAIR      53  52  94 CALM      30.20S
6HR MIN TEMP:  51; 6HR MAX TEMP:  62;

MONROE         SUNNY     57  50  77 N3        30.20R
JANESVILLE     MOSUNNY   54  52  94 NW5       30.19R
$$

WIZ051-052-058>065-066-070>072-241300-
SOUTHEAST WISCONSIN

CITY           SKY/WX    TMP DP  RH WIND       PRES   REMARKS
MILWAUKEE      MOSUNNY   59  51  75 N6        30.20R
6HR MIN TEMP:  55; 6HR MAX TEMP:  59;

WAUKESHA       SUNNY     54  52  94 W8        30.21R
MILWAUKEE/TIMM SUNNY     55  48  76 CALM      30.21S
RACINE         SUNNY     58  53  84 N7        30.21R
6HR MIN TEMP:  53; 6HR MAX TEMP:  58;

BURLINGTON     SUNNY     51  51 100 CALM      30.19S
6HR MIN TEMP:  46; 6HR MAX TEMP:  51;

KENOSHA        SUNNY     57  52  83 N6        30.19R
6HR MIN TEMP:  53; 6HR MAX TEMP:  57;

FOND DU LAC    SUNNY     55  51  86 CALM      30.21S
6HR MIN TEMP:  50; 6HR MAX TEMP:  56;

SHEBOYGAN      SUNNY     56  51  84 CALM      30.20S
6HR MIN TEMP:  49; 6HR MAX TEMP:  56;

WEST BEND      SUNNY     52  48  87 CALM      30.21R
JUNEAU         SUNNY     55  49  81 N3        30.22S
6HR MIN TEMP:  49; 6HR MAX TEMP:  55;

$$

LSZ147-162-241300-
LAKE SUPERIOR

STATION/POSITION TIME  TEMP    WIND        PRES    WAVE
                       AIR SEA DIR/SP/G            HT/PER
                 (UTC) (F)     (DEG/KT/KT) (MB)    (FT/S)
$$

LMZ867-665-643>646-241300-
LAKE MICHIGAN

STATION/POSITION TIME  TEMP    WIND        PRES    WAVE
                       AIR SEA DIR/SP/G            HT/PER
                 (UTC) (F)     (DEG/KT/KT) (MB)    (FT/S)
$$

TC  - TEMPERATURE IN CELSIUS
VSB - VISIBILITY IN STATUTE MILES
WCI - WIND CHILL INDEX
HX  - HEAT INDEX




USA.gov is the U.S. government's official web portal to all federal, state and local government web resources and services.